RH
89 86 86 70 55 48 39 32 32 47 52 58 83 89 100 77 100 100 89 100 86 100 74 76 83 81 92 84 60 25 13 16 28 15 13 13 10 9 8 8 10 12 18 29 28 22 20 25 30 42 63 100 100 93
81 70 89 75 62 57 36 34 40 47 75 90 100 100 100 87 100 100 100 97 82 100 82 81 92 80 73 87 68 38 14 13 20 26 14 15 15 10 9 8 9 11 15 20 27 28 24 23 21 28 37 49 80 100
60 67 94 78 67 48 41 39 40 52 64 90 91 94 99 92 100 100 100 100 91 100 86 75 100 96 90 86 74 43 16 13 15 27 24 14 16 17 12 9 10 9 10 12 17 25 27 27 25 23 22 26 34 53
51 62 92 86 65 51 53 42 49 52 88 90 77 100 85 100 100 100 100 99 100 100 89 78 93 100 95 86 82 46 20 15 15 18 28 21 14 17 17 15 10 10 10 10 10 12 14 21 26 25 24 22 23 26
60 76 100 92 71 57 68 54 60 51 83 97 99 100 81 100 100 100 100 100 100 100 87 84 92 88 100 92 88 47 21 13 15 16 20 24 20 16 18 16 18 12 10 10 10 10 10 10 13 21 24 23 24 24
67 91 82 100 70 74 88 80 62 56 100 100 100 100 100 100 100 100 100 100 100 100 84 97 94 90 100 98 99 49 21 18 17 16 17 21 21 19 16 21 18 20 16 10 10 10 9 9 9 9 13 18 22 25
96 98 55 100 74 80 100 73 48 69 92 100 100 100 100 100 100 100 100 100 100 100 97 90 99 98 100 86 96 51 28 19 19 22 17 17 21 19 19 15 19 20 22 22 13 10 9 10 9 8 10 10 12 18
100 100 80 100 71 97 100 98 56 91 100 100 100 100 100 100 100 100 100 100 100 98 94 100 100 84 100 98 91 51 33 22 21 24 22 17 17 20 19 19 15 16 20 19 23 20 13 10 10 10 9 8 9 9
100 80 84 77 94 100 100 100 83 87 100 99 96 100 100 100 100 100 100 100 100 100 90 100 100 88 97 88 68 48 36 25 24 29 35 23 16 16 19 22 22 17 15 17 18 18 22 18 12 10 10 10 10 8
100 81 69 94 100 100 100 97 88 100 100 99 100 100 100 100 100 100 100 100 100 100 100 100 100 100 87 53 44 36 35 28 32 40 50 35 21 18 17 18 20 20 17 15 14 16 17 20 20 15 12 10 9 9
77 83 65 100 100 100 100 82 97 100 100 100 100 100 100 100 100 100 100 100 100 100 100 100 100 99 78 36 33 30 30 25 32 56 68 62 42 22 20 17 18 21 19 17 15 15 15 14 16 18 18 15 12 10
76 65 98 100 100 100 98 100 100 100 100 100 100 100 100 100 100 100 100 100 100 100 100 100 87 85 48 29 28 30 29 24 31 54 71 78 61 31 21 20 18 19 18 17 15 14 14 13 12 12 16 17 16 13
70 100 100 100 100 100 100 100 100 100 100 92 100 100 100 100 100 100 100 100 100 100 100 100 66 62 31 26 30 28 26 27 46 60 58 53 59 44 28 20 20 17 17 16 14 13 14 13 12 12 13 15 16 14
97 100 100 100 100 100 96 100 100 100 100 100 100 100 100 100 100 100 100 100 100 100 100 84 40 43 28 30 31 27 27 31 55 69 73 61 39 32 28 22 19 18 15 14 15 14 16 16 12 12 13 16 17 14
100 100 100 100 100 100 100 100 100 100 100 100 100 100 100 100 100 100 100 100 100 94 91 50 35 34 30 32 33 36 34 44 60 72 75 64 56 24 19 18 17 16 14 13 12 14 14 13 12 13 17 19 16 12
100 100 100 100 100 100 100 100 100 100 100 100 100 100 100 100 100 100 100 98 72 55 49 29 28 29 33 36 43 47 52 62 65 66 52 51 39 27 19 17 16 17 13 12 12 11 12 11 12 15 17 15 11 10
100 100 100 100 100 100 100 100 100 100 100 100 100 100 100 100 100 100 98 57 40 37 34 23 25 26 31 39 50 55 65 64 60 50 36 28 25 19 15 15 17 16 15 12 11 11 11 11 13 15 12 10 9 8
100 100 100 100 100 100 100 100 100 100 100 100 100 100 100 100 100 100 41 28 29 29 25 21 20 26 27 38 54 61 65 55 52 28 22 18 17 14 14 15 16 16 14 12 11 12 12 13 14 11 8 8 7 6
100 100 100 100 100 100 100 100 100 100 100 100 100 100 100 97 83 38 19 20 22 20 19 15 12 17 27 43 58 64 61 52 32 19 14 12 12 12 13 14 15 14 12 11 11 12 13 14 13 9 8 7 6 6
100 100 100 100 100 100 100 100 100 100 100 100 94 100 66 25 18 16 16 15 14 13 13 13 13 20 32 50 61 58 47 30 16 14 12 11 11 13 14 13 13 12 11 11 12 13 15 14 10 8 7 6 5 5
100 100 100 100 100 100 100 100 100 100 100 93 88 40 17 17 17 13 12 13 14 15 14 16 22 36 46 56 53 40 23 12 10 11 10 10 12 13 13 12 12 11 12 12 14 15 13 9 8 7 6 5 5 5
100 100 100 100 100 100 100 100 90 78 56 33 20 16 14 12 11 12 12 14 21 24 22 19 28 37 38 32 26 17 10 10 10 9 10 11 13 13 12 11 11 12 13 15 15 12 8 7 6 6 5 5 5 5
100 100 100 100 100 100 91 50 43 30 19 14 11 10 10 10 12 17 18 18 19 21 17 12 15 17 14 11 9 9 9 9 9 9 10 12 12 11 11 11 12 14 14 12 9 7 6 5 5 5 4 4 4 4
89 85 80 83 72 49 21 18 16 13 10 9 9 10 11 14 14 12 11 10 12 10 10 9 8 7 7 8 8 8 8 8 9 10 12 11 11 11 12 13 12 11 8 6 5 5 4 4 4 4 4 4 4 4
61 41 32 20 14 15 15 12 9 8 8 10 11 11 10 8 7 7 7 6 6 6 7 7 7 7 7 7 7 8 8 10 11 11 11 11 12 13 11 8 7 6 5 5 4 4 4 4 4 3 3 3 3 3
12 13 11 11 10 8 8 8 9 11 11 10 8 7 6 6 6 6 6 6 7 7 7 6 6 6 6 7 8 9 11 11 11 12 12 13 10 8 6 6 5 5 4 4 4 4 4 4 4 3 3 3 3 3
8 8 8 7 7 8 9 9 8 8 8 7 7 7 6 6 6 6 6 6 6 6 6 6 7 7 8 9 10 10 11 12 13 13 11 8 6 6 5 5 5 4 4 4 4 4 4 4 3 3 3 3 3 3
8 8 8 9 8 8 7 7 8 8 7 6 6 6 6 5 5 5 5 6 6 6 7 8 8 9 10 10 12 12 13 11 9 7 6 6 6 5 5 5 4 4 4 4 4 4 4 3 3 3 3 3 3 3
9 8 8 8 7 6 6 6 6 6 6 6 6 6 6 5 6 6 7 7 8 8 9 9 10 11 12 12 11 8 7 6 6 6 6 6 5 5 5 5 4 4 4 4 4 4 3 3 3 3 3 3 3 3
8 8 8 7 6 6 6 6 6 6 6 6 6 7 7 8 8 8 8 9 10 11 11 10 9 8 7 6 6 6 6 6 6 5 5 5 5 5 4 4 4 4 4 4 4 4 4 3 3 3 3 3 3 3
8 8 7 7 7 6 6 7 7 7 7 7 8 8 9 9 10 10 9 8 7 7 6 6 5 5 5 5 5 5 5 5 5 5 4 5 4 4 4 4 4 4 4 4 4 4 3 3 3 3 3 3 3 3
8 8 8 8 8 8 8 8 9 9 9 8 8 7 7 6 6 5 5 4 4 4 4 4 4 4 5 5 5 5 5 5 4 4 4 4 4 4 4 4 4 4 4 4 4 4 3 3 3 3 3 3 3 3
10 10 11 11 10 10 8 7 7 6 6 5 4 4 4 4 4 4 4 4 4 4 4 4 4 4 4 4 4 4 4 4 4 4 4 4 4 4 4 4 4 4 3 3 4 3 3 3 3 3 3 3 3 4
Wind_Speed
64 65 67 70 77 79 82 86 86 87 92 95 98 101 105 108 114 117 119 123 126 129 129 131 130 123 122 119 102 75 53 32 19 17 13 13 17 27 40 54 67 80 94 97 98 103 109 113 121 127 127 123 121 122
64 67 71 75 82 81 83 86 88 90 91 97 101 103 105 109 114 117 120 126 125 128 130 133 132 128 122 120 107 81 58 41 26 17 15 16 17 20 30 44 57 73 85 99 100 100 101 106 114 119 125 127 125 125
66 71 73 76 82 88 86 89 92 93 96 99 104 108 109 112 115 116 122 125 127 131 132 131 132 132 127 119 106 84 63 51 37 21 17 15 19 22 24 32 47 59 74 82 92 102 105 106 109 114 121 125 130 130
72 72 78 81 89 91 92 92 95 96 99 101 103 108 110 114 114 121 123 128 132 135 138 135 132 129 130 117 111 85 65 52 43 30 20 18 18 23 27 28 35 46 60 72 85 92 100 109 113 113 118 122 126 129
75 76 82 88 93 92 93 96 99 99 102 104 106 110 111 115 119 124 129 133 134 136 139 138 135 128 129 113 118 86 66 50 46 37 26 20 20 22 28 32 33 38 47 58 69 82 91 98 107 116 119 119 121 123
78 79 85 92 95 97 97 99 103 103 103 107 111 114 115 118 122 126 132 133 136 138 143 142 135 129 125 114 114 86 66 52 46 41 33 26 24 23 26 33 36 39 40 47 56 66 76 88 96 99 112 120 122 122
82 86 91 94 97 98 101 104 105 107 108 110 112 117 119 122 124 131 135 134 135 140 143 143 137 134 131 121 113 87 69 56 46 43 38 33 29 28 27 30 35 41 44 47 49 55 62 71 80 90 99 105 112 123
83 88 94 97 101 100 104 107 108 110 109 114 115 122 124 126 129 132 134 140 142 146 146 142 139 134 131 121 107 86 69 61 50 44 41 37 33 31 32 33 35 37 43 47 51 53 55 59 67 76 82 92 103 110
92 97 97 102 100 102 109 111 113 113 114 116 120 123 126 127 131 134 138 143 144 149 145 142 138 136 130 117 101 80 69 62 53 46 44 40 36 34 33 34 37 39 41 45 50 54 57 58 58 63 69 77 86 95
101 103 103 100 103 107 114 115 114 115 118 120 123 125 126 126 138 141 141 146 145 153 142 141 138 135 129 113 93 76 66 59 53 47 44 43 40 38 34 33 36 40 42 45 48 51 56 59 60 59 60 65 71 79
107 107 105 103 109 113 119 121 120 123 123 122 127 129 127 136 139 143 145 149 149 148 141 141 137 130 126 105 86 75 66 58 51 45 44 42 42 40 39 37 36 40 43 45 48 50 52 55 57 60 60 59 63 68
109 108 103 105 113 122 126 125 123 126 123 127 130 132 133 143 143 145 153 152 151 144 143 140 131 127 116 97 82 73 65 58 51 44 43 40 45 41 39 40 38 39 42 44 47 49 51 53 54 55 58 58 59 63
109 108 110 112 121 127 128 132 128 128 131 133 135 134 142 146 148 152 155 153 151 148 145 139 128 122 105 90 81 72 65 56 50 47 44 39 42 43 43 44 43 42 42 45 44 46 49 50 51 51 53 56 55 57
113 111 113 120 130 127 130 133 131 136 136 137 136 141 147 152 155 157 155 149 151 144 141 136 122 107 95 85 80 72 62 56 49 48 50 49 48 43 44 47 47 45 44 44 44 44 46 49 49 49 52 54 56 57
112 112 119 128 132 134 134 137 138 140 142 138 143 146 151 158 157 157 153 152 145 140 136 129 106 98 89 82 78 71 64 59 53 51 51 51 53 50 48 48 48 48 45 44 44 43 43 45 48 47 50 55 58 57
117 120 127 132 134 134 136 141 142 145 145 146 150 152 156 156 157 156 150 152 139 131 129 113 97 93 85 82 76 70 67 66 61 60 55 54 54 55 52 50 48 47 47 45 45 44 42 41 44 45 50 54 55 54
126 125 133 133 135 140 144 145 148 151 155 151 154 153 153 155 159 151 155 140 133 124 115 104 96 89 86 80 75 71 70 68 65 63 61 57 57 58 54 50 46 46 46 46 45 43 43 41 43 45 47 49 50 52
133 135 134 136 143 149 145 149 154 160 158 155 158 155 151 154 156 153 143 131 120 112 106 99 92 84 84 80 77 75 74 70 70 65 60 60 61 59 55 48 44 44 45 45 43 43 43 43 43 41 43 45 45 47
135 137 140 147 149 149 155 154 157 159 157 164 160 157 164 161 151 140 127 115 109 104 97 94 89 79 78 78 78 77 74 73 70 66 62 61 60 58 53 47 45 46 46 45 44 44 44 44 43 41 41 42 41 42
143 146 147 150 153 157 159 160 160 165 162 160 167 163 154 139 131 118 109 105 103 98 93 92 85 77 75 76 76 75 75 74 70 67 65 63 60 56 51 48 47 48 46 45 45 46 46 45 43 42 40 39 39 40
145 151 151 157 160 160 163 167 166 165 168 162 152 143 128 119 110 104 101 100 98 95 90 87 78 75 72 74 75 75 75 72 68 66 64 62 58 54 51 49 49 47 46 45 46 48 47 44 42 42 40 38 38 39
154 156 156 160 162 167 164 164 165 160 149 141 129 117 110 105 101 98 96 93 90 89 86 80 76 75 74 74 75 75 74 70 67 65 63 60 57 54 51 49 48 47 47 49 50 49 46 43 42 41 39 38 37 38
160 161 159 161 163 166 165 153 141 133 130 120 110 106 102 97 93 93 91 89 86 84 82 76 72 73 73 73 73 71 68 67 65 62 61 58 54 52 51 49 49 49 51 51 50 47 44 42 41 40 38 37 36 36
163 159 157 159 160 148 133 124 120 115 110 107 104 100 94 90 87 85 84 81 79 78 77 75 73 72 70 68 68 66 64 62 60 59 56 54 52 50 50 51 51 51 51 49 47 44 42 41 40 38 37 36 35 34
150 140 132 125 115 109 107 106 105 103 100 99 94 90 84 80 77 74 75 74 71 69 68 68 67 65 64 64 62 61 59 58 57 56 54 52 52 53 53 52 52 50 49 46 44 42 40 39 38 37 35 34 32 32
106 99 98 97 99 101 100 97 94 92 90 87 82 79 75 72 70 67 65 63 62 62 62 61 60 59 59 57 56 55 55 55 54 54 53 54 54 53 52 52 50 47 45 43 41 39 38 36 35 34 33 32 31 32
93 93 94 94 93 91 87 84 82 80 79 77 73 71 69 66 62 60 58 57 56 56 56 56 56 55 53 53 53 53 53 53 53 54 54 54 53 51 50 48 46 43 42 39 38 37 36 35 33 32 32 32 31 32
89 88 88 86 81 78 74 70 68 67 68 67 67 66 64 63 60 58 56 55 54 54 54 54 53 52 51 51 51 52 53 53 53 53 52 50 49 48 46 45 43 42 40 39 38 37 35 34 32 32 32 31 30 30
79 75 73 72 70 67 65 63 63 63 63 62 61 60 58 58 56 54 53 51 50 49 49 49 49 49 50 51 52 52 51 51 50 49 48 46 45 44 44 43 42 41 39 38 37 36 34 32 31 31 30 29 29 28
66 64 64 65 64 63 62 60 60 60 57 55 53 52 51 50 49 48 47 47 47 48 49 49 49 49 50 50 49 49 48 47 46 45 44 43 43 43 42 41 39 38 37 35 34 33 32 30 29 29 28 27 26 26
58 59 59 59 59 57 56 54 52 49 48 47 46 46 46 47 48 49 49 49 49 49 49 48 48 48 47 46 45 44 44 44 43 43 42 41 40 40 39 38 36 35 34 32 30 30 30 28 27 26 26 25 25 24
51 52 51 50 48 47 47 46 46 47 48 49 50 50 49 50 50 50 49 48 47 47 46 45 44 43 42 41 41 41 42 42 41 40 38 38 37 35 35 33 33 32 30 28 27 27 28 27 25 22 23 24 22 21
42 42 43 45 46 48 49 49 49 49 49 49 48 48 47 46 45 45 44 43 42 42 41 41 41 40 40 40 40 39 38 37 36 36 35 33 31 32 30 29 30 29 27 25 25 25 26 25 22 21 21 21 20 20
Wind_Direction
324 327 329 331 334 334 335 337 338 340 344 346 346 349 348 351 350 352 352 353 354 355 356 355 358 357 358 358 358 358 1 359 344 321 289 257 238 238 228 221 222 224 222 223 225 226 225 225 227 228 230 229 229 231
323 324 324 327 329 332 335 333 336 339 343 343 343 347 346 349 347 351 351 352 353 353 353 353 355 356 355 357 356 355 356 359 353 328 299 268 253 237 231 230 222 221 224 225 224 227 228 227 228 229 231 232 232 233
318 321 324 326 329 332 333 333 335 337 340 342 341 344 344 345 345 347 348 351 350 351 351 351 352 352 352 353 356 354 353 353 353 342 308 279 251 248 241 232 229 226 224 226 229 230 230 230 230 230 231 231 232 233
314 318 322 325 328 330 331 332 334 336 337 339 339 340 342 341 344 345 344 348 347 348 349 350 350 350 350 351 353 352 350 347 347 346 328 293 270 249 242 238 236 231 230 229 227 227 230 232 233 231 231 230 231 233
312 315 317 319 326 327 328 332 333 335 336 337 337 336 339 338 340 341 342 344 344 345 347 347 349 348 348 348 350 350 348 345 342 342 335 312 281 264 251 244 239 235 236 234 232 233 233 232 231 232 232 231 232 233
315 314 316 318 325 324 325 328 329 332 332 334 336 334 335 335 336 337 339 340 341 342 345 345 347 345 347 347 346 347 346 345 340 338 334 324 304 276 262 251 246 245 241 238 240 237 235 236 238 236 233 233 232 233
313 315 319 316 322 322 323 326 328 329 330 330 331 332 332 333 333 333 337 336 339 340 342 342 344 343 342 345 345 345 344 343 339 334 332 325 313 295 277 262 250 245 244 246 244 242 241 239 238 237 238 239 238 235
312 311 316 312 317 317 318 322 326 325 328 327 327 329 331 331 331 332 333 335 336 338 339 341 340 342 341 341 343 343 341 341 338 331 329 326 316 303 290 278 267 253 245 245 246 248 246 243 242 241 239 239 240 241
313 314 314 313 311 315 318 320 323 324 323 327 328 328 328 329 328 330 332 332 333 336 336 338 338 339 339 339 341 341 337 338 335 330 326 323 319 310 297 285 276 271 262 248 243 246 249 251 247 244 244 241 241 242
308 313 313 310 309 313 315 318 318 318 322 324 325 325 326 326 327 329 328 331 331 334 334 334 335 337 336 339 338 338 336 335 332 328 322 322 318 315 304 292 283 274 267 262 256 247 244 247 252 252 248 246 244 243
307 308 309 306 312 314 314 317 315 318 319 320 323 324 324 323 326 326 328 327 329 330 331 333 331 333 334 336 336 335 334 332 330 325 323 321 317 313 310 301 289 278 274 271 264 258 252 247 246 250 253 254 251 248
305 305 304 304 308 312 313 313 315 315 315 319 320 321 321 323 323 324 326 327 328 328 328 329 330 331 332 334 333 333 332 330 327 323 322 319 319 312 309 304 297 284 276 275 273 265 258 253 251 249 250 254 256 254
304 300 303 304 308 310 313 310 312 313 314 316 317 319 318 320 322 322 325 325 325 325 326 327 327 330 329 331 330 331 330 327 324 323 323 312 316 311 306 303 298 290 282 279 276 269 265 261 257 255 253 255 259 258
301 301 301 305 306 309 308 309 310 311 313 313 316 317 318 319 320 321 321 322 322 322 323 324 326 327 327 328 327 330 328 325 324 323 323 322 316 308 305 302 300 295 287 281 278 274 270 269 264 261 260 261 264 263
298 298 302 303 305 305 306 306 309 310 310 313 314 314 316 317 318 318 318 320 319 320 319 323 325 324 325 324 326 328 326 322 322 324 322 320 318 313 307 302 300 297 292 286 281 277 274 270 267 265 264 267 268 265
295 297 299 299 303 303 303 306 307 307 310 311 313 315 316 316 314 316 316 318 317 318 318 320 321 321 322 322 324 325 323 321 322 323 321 318 315 310 307 305 302 296 294 290 286 283 279 273 270 268 267 267 267 263
292 296 294 298 300 302 303 304 304 306 308 312 313 313 312 312 313 313 315 315 315 315 316 317 318 320 320 322 320 320 319 318 318 320 318 315 312 309 309 308 305 300 297 292 289 287 285 279 276 276 270 267 265 264
291 293 294 297 298 300 300 301 303 305 307 310 311 311 309 309 310 310 312 312 312 312 313 313 315 317 318 318 317 315 315 316 316 317 314 311 309 309 309 309 306 301 296 292 291 290 288 285 285 279 273 271 268 264
290 290 293 295 297 297 298 301 303 306 307 308 309 308 308 310 309 310 310 309 310 310 310 311 312 315 314 314 312 311 311 312 312 312 311 309 308 308 310 307 303 299 295 295 295 294 292 290 289 283 278 275 269 265
288 290 291 293 296 296 299 299 302 305 306 307 307 306 308 308 308 308 308 308 309 309 308 308 310 312 312 309 307 307 307 308 309 310 310 309 309 311 308 302 300 298 299 299 298 296 294 294 291 286 282 277 272 266
288 289 291 292 295 296 297 299 302 301 302 303 303 304 306 306 306 306 306 306 306 305 305 305 310 309 306 303 303 302 303 306 309 307 308 309 310 307 303 301 300 301 301 300 298 297 295 293 290 287 283 278 273 268
288 291 293 293 294 295 297 299 299 301 301 302 302 302 303 303 303 303 302 302 302 302 303 304 305 303 301 300 300 301 304 306 307 307 309 309 306 303 302 301 302 302 302 300 299 296 294 291 288 285 281 277 272 268
288 290 291 291 294 295 297 297 298 298 297 297 299 300 301 300 301 301 300 300 300 301 300 301 300 298 297 298 300 303 304 304 306 307 306 304 303 303 303 304 303 303 302 300 298 295 293 290 287 284 281 277 273 268
288 289 290 290 293 294 294 295 295 295 295 297 299 299 300 300 299 299 300 300 298 298 299 299 300 302 303 303 303 303 304 304 305 305 304 303 304 305 304 304 304 303 302 300 298 296 294 291 287 283 280 277 274 271
288 290 290 290 290 291 291 292 292 295 296 296 297 298 298 298 299 300 298 299 301 301 301 301 301 301 301 301 303 304 304 304 303 302 303 305 305 305 305 305 304 304 302 300 298 295 292 289 286 283 280 278 277 274
287 287 287 288 288 289 290 292 293 294 294 295 296 297 297 298 299 301 301 302 302 302 302 302 301 300 301 302 302 301 301 302 303 304 305 305 305 305 306 305 304 303 301 300 298 296 293 291 289 287 285 282 279 276
284 285 286 287 289 290 292 293 295 296 296 296 297 297 297 298 298 299 299 299 299 300 300 299 299 299 299 300 300 302 303 304 304 304 304 305 305 304 303 303 302 303 302 302 301 298 296 294 292 290 287 283 280 277
285 286 288 290 293 294 295 296 295 293 292 294 295 295 296 296 298 298 298 297 297 298 299 299 299 300 301 302 303 303 302 302 303 303 303 303 303 302 303 303 304 305 305 305 302 300 297 296 295 291 287 284 282 279
287 290 292 292 293 293 293 292 292 294 294 295 295 296 297 298 299 300 300 300 300 300 300 300 300 301 301 300 300 300 301 302 301 300 300 301 303 305 304 304 305 305 304 303 301 299 299 297 294 289 287 285 283 279
291 291 292 293 295 297 297 297 297 297 296 297 297 297 298 298 299 299 300 300 300 299 299 298 298 298 299 300 300 299 299 299 300 302 304 306 305 304 304 304 304 303 302 301 301 300 299 297 294 292 290 287 283 278
294 295 296 297 297 297 298 298 297 297 297 298 298 299 300 301 301 300 299 298 298 298 298 298 298 298 298 297 297 298 300 302 303 305 305 306 304 304 302 303 303 302 303 304 303 300 298 296 295 292 288 284 280 276
295 296 297 297 297 296 297 298 300 301 301 302 302 301 300 299 298 298 299 299 298 299 299 299 299 299 300 301 302 302 303 303 304 304 305 303 303 303 303 304 303 303 304 305 303 300 297 295 294 290 285 282 280 278
296 297 297 298 299 300 301 302 302 302 302 302 302 302 301 302 302 302 302 303 303 304 304 304 304 305 305 304 304 304 303 303 304 305 305 306 305 305 308 307 306 307 308 307 304 300 297 296 296 291 286 285 281 277